Regional Weather Roundup
Issued by NWS

Home | Current Version | Previous Version | Text Only | Print | Product List | Glossary On
Versions: 1 2 3 4 5 6 7 8 9 10 11 12 13 14 15 16 17 18 19 20 21 22 23 24 25 26 27 28 29 30 31 32 33 34 35 36 37 38 39 40 41 42 43 44 45 46 47 48 49 50
000
ASUS43 KLOT 231707
RWRIL

ILLINOIS REGIONAL WEATHER ROUNDUP
NATIONAL WEATHER SERVICE CHICAGO/ROMEOVILLE IL
1200 PM CDT THU MAR 23 2017

NOTE: "FAIR" INDICATES FEW OR NO CLOUDS BELOW 12,000 FEET WITH NO
SIGNIFICANT WEATHER AND/OR OBSTRUCTIONS TO VISIBILITY.

* THESE STATIONS ARE NOT UNDER NWS QUALITY CONTROL. THEY ALSO MAY NOT
  REPORT WEATHER SUCH AS PRECIPITATION OR FOG.

ILZ001-002-007-009-015-016-024-231800-
NORTHWEST ILLINOIS

CITY           SKY/WX    TMP DP  RH WIND       PRES   REMARKS
MOLINE         CLOUDY    41  26  55 SE18      30.23F
STERLING*      CLOUDY    40  26  57 SE9       30.28F
SAVANNA*       CLOUDY    43  25  49 SE16      30.25F
$$

ILZ003-004-008-010-011-017-018-231800-
NORTH CENTRAL ILLINOIS

CITY           SKY/WX    TMP DP  RH WIND       PRES   REMARKS
ROCKFORD       PTSUNNY   46  21  37 S23G30    30.29F
FREEPORT*      CLOUDY    42  23  46 SE16G22   30.28F
ROCHELLE*      PTSUNNY   43  24  48 SE17G23   30.30F
DE KALB*       CLOUDY    42  23  47 SE15G23   30.31F
PERU*          CLOUDY    38  24  57 SE16      30.30F WCI  29
$$

ILZ005-006-012>014-019>023-231800-
NORTHEAST ILLINOIS

CITY           SKY/WX    TMP DP  RH WIND       PRES   REMARKS
CHICAGO-OHARE  MOSUNNY   44  21  40 SE15      30.34F
CHICAGO-MIDWAY MOSUNNY   42  21  43 SE12      30.36F
AURORA         CLOUDY    45  24  43 SE15G22   30.32F
LANSING*       MOSUNNY   41  26  55 SE15      30.37F
JOLIET*        SUNNY     45  26  46 S13G20    30.35F
WAUKEGAN       MOSUNNY   38  24  57 SE16      30.34F WCI  29
DUPAGE AIRPORT   N/A     45  23  42 S15G23    30.32F
KANKAKEE*      CLOUDY    46  25  43 SE15      30.36F
WHEELING       SUNNY     42  21  43 S14       30.35F
MORRIS*        CLOUDY    41  24  49 S14       30.32F
ROMEOVILLE*    PTSUNNY   43  29  57 SE17      30.33F
NORTHERLY ISL    N/A     40  23  51 SE12        N/A
$$

LMZ740>746-231800-
SOUTHERN LAKE MICHIGAN

STATION/POSITION SKY/WX   TEMP    WIND        PRES    VSBY  WAVE
                          AIR SEA DIR/SP/G                  HT/PER
                          (F)     (DEG/KT/KT) (MB)    (MI)  (FT/S)
HARRISON CRIB              36     150/ 13/ 17   N/A
BURNHAM HARBOR             40     120/ 12       N/A
CALUMET HARBOR             38     140/ 10/ 15 1027.7F
BURNS HARBOR               37     170/ 11/ 18 1029.8S
MICHIGAN CITY              35     150/ 14/ 17   N/A
$$

ILZ025>027-034>036-040-047-049-050-058-095>099-231800-
WEST-CENTRAL ILLINOIS

CITY           SKY/WX    TMP DP  RH WIND       PRES   REMARKS
QUINCY         CLOUDY    38  35  89 SE20      30.20F WCI  28
GALESBURG*     CLOUDY    38  31  74 SE10G20   30.23F WCI  31
MACOMB*        LGT RAIN  37  36  96 SE15      30.26F WCI  27
JACKSONVILLE*  CLOUDY    37  35  89 SE14G21   30.26F WCI  29
PITTSFIELD*    RAIN      38  36  92 SE12      30.24F WCI  30
$$

ILZ028>032-037-038-041>044-048-051>054-059>061-231800-
CENTRAL ILLINOIS

CITY           SKY/WX    TMP DP  RH WIND       PRES   REMARKS
PONTIAC        CLOUDY    41  27  57 SE17      30.33F
BLOOMINGTON    CLOUDY    39  24  55 SE17      30.31F WCI  30
DECATUR        CLOUDY    41  25  53 S15       30.31F
PEORIA         CLOUDY    40  28  62 S16       30.29F
LACON*         CLOUDY    39  25  57 S13G18    30.29F WCI  31
LINCOLN*       CLOUDY    40  32  71 S15       30.30F
SPRINGFIELD    CLOUDY    38  33  82 SE17      30.29F WCI  28
TAYLORVILLE    RAIN      35  32  89 SE12      30.32F WCI  27
$$

ILZ033-039-045-046-055>057-062-063-231800-
EAST-CENTRAL ILLINOIS

CITY           SKY/WX    TMP DP  RH WIND       PRES   REMARKS
CHAMPAIGN      CLOUDY    44  22  41 SE13      30.33F
RANTOUL*       CLOUDY    43  27  52 SE14      30.34F
MATTOON        CLOUDY    41  27  57 SE9       30.33F
PARIS*         CLOUDY    42  27  55 SE10      30.36F
$$

ILZ079-100>102-231800-
SOUTHWEST ILLINOIS

CITY           SKY/WX    TMP DP  RH WIND       PRES   REMARKS
ALTON          CLOUDY    37  34  87 E13       30.29F WCI  29
CAHOKIA*       CLOUDY    42  36  79 SE12      30.27F
SPARTA*        CLOUDY    38  36  94 E10       30.31F WCI  31
$$

ILZ064>066-069>071-074>076-080>082-084>086-088>090-092>094-231800-
SOUTH-CENTRAL ILLINOIS

CITY           SKY/WX    TMP DP  RH WIND       PRES   REMARKS
CARBONDALE     CLOUDY    41  39  93 E7        30.32S
CAIRO*         CLOUDY    47  35  63 E12       30.30F
EFFINGHAM*     CLOUDY    40  32  71 SE7       30.36F
MARION         CLOUDY    41  41 100 E9        30.32F
MT. VERNON     RAIN      37  34  89 E6        30.34F FOG     WCI  32
CENTRALIA*     CLOUDY    37  35  93 E8        30.31F WCI  31
SALEM*         CLOUDY    37  33  87 SE9       30.33F WCI  30
METROPOLIS*    PTSUNNY   44  39  83 E8        30.32F
$$

ILZ067-068-072-073-078-083-087-091-231800-
SOUTHEAST ILLINOIS

CITY           SKY/WX    TMP DP  RH WIND       PRES   REMARKS
LAWRENCEVILLE  CLOUDY    42  26  53 SE8       30.37F
FLORA*         LGT RAIN  40  32  74 SE12      30.34F
FAIRFIELD*     RAIN      38  32  77 CALM      30.35F
HARRISBURG*    RAIN      38  36  92 E8        30.34F WCI  32
ROBINSON*      DRIZZLE   41  27  57 SE7       30.38F
CARMI*         LGT RAIN  40  33  77 E8        30.36F
$$

ABBREVIATIONS USED IN REMARKS
   TC - TEMPERATURE IN CELSIUS
  WCI - WIND CHILL INDEX
   HX - HEAT INDEX
  VSB - VISIBILITY
$$





USA.gov is the U.S. government's official web portal to all federal, state and local government web resources and services.